Regional Weather Roundup
Issued by NWS Cleveland, OH

Home | Current Version | Previous Version | Graphics & Text | Print | Product List | Glossary On
Versions: 1 2 3 4 5 6 7 8 9 10 11 12 13 14 15 16 17 18 19 20 21 22 23 24 25 26 27 28 29 30 31 32 33 34 35 36 37 38 39 40 41 42 43 44 45 46 47 48 49 50
000
ASUS41 KCLE 052302
RWRCLE
OHIO REGIONAL WEATHER ROUNDUP
NATIONAL WEATHER SERVICE CLEVELAND, OH
600 PM EST FRI FEB 05 2016

NOTE: "FAIR" INDICATES FEW OR NO CLOUDS BELOW 12,000 FEET WITH NO
SIGNIFICANT WEATHER AND/OR OBSTRUCTIONS TO VISIBILITY.

OHZ001>008-015>018-024>027-034-035-043-044-060000-
   NORTHWEST OHIO

CITY           SKY/WX    TMP DP  RH WIND       PRES   REMARKS
DEFIANCE       PTCLDY    35  24  64 VRB5      30.32R
FINDLAY        CLOUDY    36  23  59 S9        30.31R
TOLEDO EXPRESS CLOUDY    37  21  52 SW6       30.30R
TOLEDO EXEC    CLOUDY    37  22  54 S8        30.32R
LIMA           CLOUDY    36  22  56 S7        30.31R
$$

OHZ009>014-019>023-028>033-038-089-060000-
   NORTHEAST OHIO

CITY           SKY/WX    TMP DP  RH WIND       PRES   REMARKS
CLE-HOPKINS    MOCLDY    34  20  56 S7        30.37R WCI  28
CLE-LAKEFRONT  CLEAR     34  22  61 CALM      30.34S
CUY CO. ARPT   PTCLDY    34  21  60 CALM      30.34S
LORAIN-ELYRIA  CLEAR     33  20  58 S7        30.34S WCI  27
ASHTABULA      CLEAR     31  16  54 CALM      30.35S
AKRON-CANTON   PTCLDY    31  18  58 SW5       30.34R WCI  26
WOOSTER        MOCLDY    33  21  61 SW5       30.34R WCI  29
MANSFIELD      CLOUDY    33  21  61 SW8       30.33R WCI  26
YOUNGSTOWN     PTCLDY    32  16  51 S3        30.33R
$$

OHZ042-051>053-060>062-070>072-077>081-060000-
  SOUTHWEST OHIO

CITY           SKY/WX    TMP DP  RH WIND       PRES   REMARKS
CINC-COVINGTON MOCLDY    39  18  42 S7        30.35S
CINC-LUNKEN    CLOUDY    39  20  46 SW9       30.38R
HAMILTON       CLOUDY    41  18  39 S6        30.36S
DAYTON         CLOUDY    38  19  46 S10       30.33S
WRIGHT-PAT AFB CLOUDY    39  17  40 S9        30.33S
DAYTON GENERAL CLOUDY    39  17  41 S7        30.33S
WILMINGTON     CLOUDY    34  22  61 S7        30.35S WCI  28
$$

OHZ036-037-039>041-045>050-054>059-063>069-073>076-082>088-060000-
  CENTRAL AND SOUTHEAST OHIO

CITY           SKY/WX    TMP DP  RH WIND       PRES   REMARKS
COLUMBUS       MOCLDY    35  16  45 S6        30.36S
OSU AIRPORT    CLEAR     35  18  49 S7        30.35S WCI  29
BOLTON FIELD   CLEAR     34  19  55 S5        30.37R WCI  30
RICKENBACK AFB NOT AVBL
NEWARK         CLEAR     35  18  49 S5        30.36S
MARION         CLOUDY    35  19  52 S9        30.34R WCI  28
LANCASTER      CLEAR     36  18  48 CALM      30.37S
ZANESVILLE     CLEAR     38  17  42 CALM      30.37R
NEW PHILLY     CLEAR     34  17  50 CALM      30.37R
$$



USA.gov is the U.S. government's official web portal to all federal, state and local government web resources and services.